This is the latest recevied weather packets stored in our database for station/object OZ1IEP-5. If no packets are shown the sender has not sent any weather packets the latest 10 day(s).
| Time | Temp. | Humidity | Pressure | Rain* | Wind** | Luminosity | Snow |
|---|---|---|---|---|---|---|---|
| 1777782006 | 11.11° C | 90% | 1009.8 hPa | 0 mm | - | 12 W/m² | - |
| 1777781406 | 11.11° C | 90% | 1009.8 hPa | 0 mm | - | 11 W/m² | - |
| 1777780808 | 11.11° C | 90% | 1009.8 hPa | 0 mm | - | 7 W/m² | - |
| 1777780205 | 10.56° C | 89% | 1009.7 hPa | 0 mm | - | 7 W/m² | - |
| 1777779605 | 10° C | 87% | 1009.4 hPa | 0 mm | - | 9 W/m² | - |
| 1777779008 | 10.56° C | 87% | 1009.4 hPa | 0 mm | - | 0 W/m² | - |
| 1777778406 | 10.56° C | 86% | 1009.5 hPa | 0 mm | - | 0 W/m² | - |
| 1777777806 | 10.56° C | 85% | 1009.6 hPa | 0 mm | - | 0 W/m² | - |
| 1777777208 | 10.56° C | 84% | 1009.6 hPa | 0 mm | - | 0 W/m² | - |
| 1777776606 | 10.56° C | 84% | 1009.7 hPa | 0 mm | - | 0 W/m² | - |
| 1777776006 | 10.56° C | 83% | 1009.6 hPa | 0 mm | - | 0 W/m² | - |
| 1777775408 | 10.56° C | 82% | 1009.7 hPa | 0 mm | - | 0 W/m² | - |
| 1777774806 | 10.56° C | 80% | 1009.7 hPa | 0 mm | - | 0 W/m² | - |
| 1777774206 | 10.56° C | 79% | 1009.8 hPa | 0 mm | - | 0 W/m² | - |
| 1777773608 | 10.56° C | 78% | 1009.8 hPa | 0 mm | - | 0 W/m² | - |
| 1777773006 | 11.11° C | 78% | 1009.8 hPa | 0 mm | - | 0 W/m² | - |
| 1777772405 | 11.11° C | 78% | 1009.8 hPa | 0 mm | - | 0 W/m² | - |
| 1777771809 | 11.11° C | 77% | 1009.8 hPa | 0 mm | - | 0 W/m² | - |
| 1777771206 | 11.11° C | 76% | 1009.8 hPa | 0 mm | - | 0 W/m² | - |
| 1777770605 | 11.11° C | 75% | 1009.7 hPa | 0 mm | - | 0 W/m² | - |
| 1777770009 | 11.67° C | 74% | 1009.8 hPa | 0 mm | - | 0 W/m² | - |
| 1777769406 | 11.67° C | 73% | 1009.8 hPa | 0 mm | - | 0 W/m² | - |
| 1777768806 | 12.22° C | 73% | 1009.8 hPa | 0 mm | - | 0 W/m² | - |
| 1777768208 | 12.22° C | 72% | 1009.8 hPa | 0 mm | - | 0 W/m² | - |
| 1777767606 | 12.22° C | 72% | 1009.9 hPa | 0 mm | - | 0 W/m² | - |
* Rain latest hour (hover to see other rain measurements)
** Current wind speed in m/s (hover to see current wind gust speed)